Location: Detroit
(42.3310°N, 83.0460°W)
Time: 19:22:09
(UTC-04:00)

A-11 Canister half - Pass Details

Date: 15 February 2023
Orbit: 1526 x 1682 km, 47.3° (Epoch: 29 March)

Event Time Altitude Azimuth Distance (km) Brightness Sun altitude
Rises 09:43:12 0° 296° (WNW) 4,684 11.0 20.8°
Reaches altitude 10° 09:46:21 10° 291° (WNW) 3,707 10.5 21.3°
Maximum altitude 09:55:06 47° 222° (SW) 1,972 9.9 22.5°
Drops below altitude 10° 10:04:05 10° 152° (SSE) 3,785 12.7 23.6°
Sets 10:07:21 0° 146° (SSE) 4,790 13.0 24.1°
